Weather History for Greenville, AL

Change the Weather History Date:

Friday, March 14, 2014

  Actual Average Record
Temperature  
Mean Temperature 52 °F -  
Max Temperature 70 °F 70 °F 86 °F (1933)
Min Temperature 34 °F 44 °F 15 °F (1993)
Degree Days  
Heating Degree Days 14    
Growing Degree Days 2 (Base 50)    
Moisture  
Dew Point 33 °F    
Average Humidity 56    
Maximum Humidity 89    
Minimum Humidity 22    
Precipitation  
Precipitation 0.00 in - - ()
Sea Level Pressure  
Sea Level Pressure 30.21 in    
Wind  
Wind Speed 3 mph (South)    
Max Wind Speed 12 mph    
Max Gust Speed 20 mph    
Visibility 10 miles    
Events      
Averages and records for this station are not official NWS values.
T = Trace of Precipitation, MM = Missing Value Source: NWS Daily Summary

Daily Weather History Graph

Daily Weather History Graph

Search for Another Location

Airport:

Trip Planner

Search our weather history database for the weather conditions in past years. The results will help you decide how hot, cold, wet, or windy it might be!

Date:

Astronomy

Mar. 14, 2014 Rise Set
Actual Time 6:57 AM CDT 6:53 PM CDT
Civil Twilight 6:33 AM CDT 7:18 PM CDT
Nautical Twilight 6:05 AM CDT 7:46 PM CDT
Astronomical Twilight 5:36 AM CDT 8:14 PM CDT
Moon 5:19 PM CDT (3/14) 5:32 AM CDT (3/14)
Length of Visible Light 12h 44m
Length of Day
11h 56m
Waxing Gibbous, 96% of the Moon is Illuminated
Mar 14
Waxing Gibbous
Mar 16
Full
Mar 23
Last Quarter
Mar 30
New
Apr 7
First Quarter

Hourly Weather History & Observations

Time (CDT) Temp. Dew Point Humidity Pressure Visibility Wind Dir Wind Speed Gust Speed Precip Events Conditions
12:56 AM 36.0 °F 33.1 °F 89% 30.24 in 10.0 mi Calm Calm - N/A   Clear
1:56 AM 37.0 °F 33.1 °F 86% 30.24 in 10.0 mi Calm Calm - N/A   Clear
2:56 AM 36.0 °F 32.0 °F 86% 30.23 in 10.0 mi Calm Calm - N/A   Clear
3:56 AM 34.0 °F 30.0 °F 85% 30.22 in 10.0 mi Calm Calm - N/A   Clear
4:56 AM 34.0 °F 30.9 °F 89% 30.23 in 10.0 mi Calm Calm - N/A   Clear
5:56 AM 34.0 °F 30.0 °F 85% 30.24 in 10.0 mi Calm Calm - N/A   Clear
6:56 AM 35.1 °F 30.0 °F 82% 30.25 in 10.0 mi Calm Calm - N/A   Clear
7:56 AM 42.1 °F 33.1 °F 70% 30.27 in 10.0 mi Calm Calm - N/A   Clear
8:56 AM 48.0 °F 30.9 °F 52% 30.30 in 10.0 mi SE 4.6 mph - N/A   Clear
9:56 AM 55.9 °F 30.0 °F 37% 30.30 in 10.0 mi SE 6.9 mph - N/A   Clear
10:56 AM 60.1 °F 27.0 °F 28% 30.28 in 10.0 mi South 9.2 mph - N/A   Clear
11:56 AM 62.1 °F 27.0 °F 26% 30.26 in 10.0 mi SSE 10.4 mph - N/A   Clear
12:56 PM 64.0 °F 28.0 °F 26% 30.23 in 10.0 mi SSW 10.4 mph 19.6 mph N/A   Clear
1:56 PM 66.9 °F 28.9 °F 24% 30.19 in 10.0 mi South 8.1 mph 16.1 mph N/A   Clear
2:56 PM 68.0 °F 30.0 °F 24% 30.16 in 10.0 mi SSW 11.5 mph 16.1 mph N/A   Clear
3:56 PM 69.1 °F 28.9 °F 22% 30.14 in 7.0 mi SSW 10.4 mph 16.1 mph N/A   Clear
5:56 PM 66.9 °F 30.9 °F 26% 30.13 in 10.0 mi SW 5.8 mph - N/A   Clear
6:56 PM 64.9 °F 37.0 °F 36% 30.13 in 10.0 mi SW 8.1 mph - N/A   Clear
7:56 PM 61.0 °F 41.0 °F 48% 30.14 in 10.0 mi SSW 6.9 mph - N/A   Clear
8:56 PM 59.0 °F 43.0 °F 55% 30.17 in 10.0 mi SSW 6.9 mph - N/A   Clear
9:56 PM 57.9 °F 45.0 °F 62% 30.17 in 10.0 mi SW 4.6 mph - N/A   Clear
10:56 PM 55.0 °F 45.0 °F 69% 30.17 in 10.0 mi South 4.6 mph - N/A   Clear
11:56 PM 54.0 °F 45.0 °F 72% 30.15 in 10.0 mi South 3.5 mph - N/A   Partly Cloudy